Date,TemperatureHighF,TemperatureAvgF,TemperatureLowF,DewpointHighF,DewpointAvgF,DewpointLowF,HumidityHigh,HumidityAvg,HumidityLow,PressureMaxIn,PressureMinIn,WindSpeedMaxMPH,WindSpeedAvgMPH,GustSpeedMaxMPH,PrecipitationSumIn
2013-1-1,27.0,24.5,23.0,20.0,18.9,18.0,83,79,74,30.48,30.37,3,1,0,0.00
2013-1-2,25.0,23.4,22.0,19.0,17.4,15.0,82,77,73,30.48,30.35,4,2,0,0.00
2013-1-3,27.0,23.5,21.0,19.0,16.7,15.0,81,75,67,30.36,30.20,3,1,0,0.00
2013-1-4,34.0,27.8,23.0,28.0,23.3,18.0,85,83,75,30.30,30.21,3,0,0,0.00
2013-1-5,28.0,26.4,25.0,23.0,21.5,20.0,84,81,78,30.27,30.11,1,0,0,0.00
2013-1-6,38.0,29.8,23.0,31.0,25.2,18.0,90,83,73,30.12,29.98,2,0,0,0.00
2013-1-7,44.0,38.0,33.0,39.0,34.0,30.0,93,86,71,30.02,29.86,7,2,0,0.00
2013-1-8,44.0,38.8,34.0,41.0,35.2,30.0,92,87,68,30.08,29.81,6,1,0,0.00
2013-1-9,44.0,35.7,27.0,37.0,30.4,24.0,89,81,72,29.81,29.67,4,1,0,0.00
2013-1-10,27.0,25.3,24.0,24.0,22.2,21.0,89,88,86,29.82,29.80,1,0,0,0.00
2013-1-11,23.0,18.3,14.0,16.0,13.2,10.0,84,81,72,30.15,30.13,0,0,0,0.00
2013-1-12,33.0,17.9,8.0,17.0,10.4,3.0,84,73,48,30.25,30.12,4,0,0,0.00
2013-1-13,33.0,16.4,3.0,16.0,8.2,-3.0,83,71,48,30.33,30.23,2,0,0,0.00
2013-1-14,39.0,25.6,7.0,27.0,17.4,2.0,84,72,54,30.35,30.18,9,2,0,0.00
2013-1-15,42.0,26.9,17.0,28.0,20.8,13.0,88,79,56,30.50,30.34,3,0,0,0.00
2013-1-16,40.0,25.4,14.0,29.0,20.4,10.0,90,82,61,30.47,30.40,3,0,0,0.00
2013-1-17,29.0,26.0,23.0,24.0,21.8,19.0,89,84,77,30.46,30.32,2,0,0,0.00
2013-1-18,42.0,24.4,9.0,29.0,18.5,4.0,87,79,57,30.29,30.16,2,0,0,0.00
2013-1-19,36.0,24.2,14.0,27.0,19.1,10.0,89,81,67,30.35,30.19,3,0,0,0.00
2013-1-20,34.0,23.9,19.0,24.0,18.7,14.0,87,81,65,30.42,30.31,2,0,0,0.00
2013-1-21,27.0,22.6,20.0,20.0,17.7,16.0,87,82,72,30.32,30.19,2,0,0,0.00
2013-1-22,27.0,22.5,20.0,19.0,17.0,15.0,84,79,70,30.21,30.05,3,0,0,0.00
2013-1-23,29.0,24.3,19.0,22.0,19.1,14.0,85,81,70,30.05,29.87,2,0,0,0.00
2013-1-24,44.0,29.4,11.0,31.0,23.3,6.0,90,79,60,30.14,30.04,2,0,0,0.00
2013-1-25,41.0,34.8,28.0,37.0,31.6,25.0,91,88,84,30.06,29.85,1,0,0,0.00
2013-1-26,42.0,33.7,28.0,35.0,30.2,25.0,91,87,75,29.93,29.82,3,0,0,0.00
2013-1-27,40.0,32.6,28.0,33.0,28.1,25.0,91,84,63,29.97,29.89,3,0,0,0.00
2013-1-28,41.0,33.6,27.0,34.0,29.6,24.0,91,85,69,29.94,29.89,5,1,0,0.00
2013-1-29,42.0,36.7,34.0,38.0,33.7,31.0,92,89,81,30.26,29.92,3,1,0,0.00
2013-1-30,43.0,38.6,35.0,37.0,34.5,32.0,90,86,76,30.30,30.22,6,2,0,0.00
2013-1-31,49.0,41.3,35.0,36.0,34.1,32.0,91,76,58,30.26,30.19,6,2,0,0.00
2013-2-1,54.0,36.6,27.0,35.0,29.5,23.0,91,78,46,30.35,30.21,2,0,0,0.00
2013-2-2,53.0,32.5,21.0,35.0,26.0,17.0,91,78,50,30.38,30.18,4,0,0,0.00
2013-2-3,48.0,34.3,22.0,35.0,27.5,18.0,92,77,53,30.21,30.07,5,1,0,0.00
2013-2-4,50.0,39.4,33.0,36.0,32.0,29.0,87,75,56,30.10,29.87,3,0,0,0.00
2013-2-5,44.0,36.7,30.0,38.0,33.0,27.0,91,86,76,29.90,29.80,2,0,0,0.00
2013-2-6,43.0,35.9,32.0,37.0,32.4,29.0,92,88,79,30.00,29.79,1,0,0,0.00
2013-2-7,43.0,33.4,25.0,33.0,28.0,21.0,92,81,56,30.01,29.80,5,1,0,0.00
2013-2-8,48.0,30.4,19.0,30.0,22.0,16.0,90,73,37,30.10,30.00,4,1,0,0.00
2013-2-9,47.0,32.8,22.0,31.0,25.5,19.0,89,75,54,30.15,30.01,7,2,0,0.00
2013-2-10,53.0,34.1,22.0,35.0,26.6,19.0,90,76,42,30.20,30.10,3,0,0,0.00
2013-2-11,48.0,35.2,21.0,33.0,27.7,17.0,91,75,54,30.20,30.10,7,2,0,0.00
2013-2-12,48.0,40.9,36.0,37.0,33.8,31.0,89,76,63,30.29,30.19,7,2,0,0.00
2013-2-13,50.0,42.7,35.0,36.0,33.0,30.0,84,69,46,30.35,30.21,7,2,0,0.00
2013-2-14,50.0,39.2,29.0,36.0,31.1,26.0,90,73,58,30.42,30.34,7,1,0,0.00
2013-2-15,61.0,36.6,25.0,39.0,29.3,22.0,91,77,43,30.45,30.17,4,1,0,0.00
2013-2-16,49.0,36.6,27.0,39.0,29.9,24.0,93,78,53,30.17,30.02,6,1,0,0.00
2013-2-17,45.0,36.0,27.0,27.0,23.9,22.0,83,62,44,30.10,29.97,9,3,0,0.00
2013-2-18,43.0,33.4,26.0,28.0,24.9,22.0,86,72,49,29.97,29.68,3,0,0,0.00
2013-2-19,51.0,35.2,25.0,28.0,25.8,22.0,87,71,35,29.85,29.60,4,0,0,0.00
2013-2-20,43.0,31.9,21.0,31.0,24.3,17.0,88,74,49,29.95,29.83,5,1,0,0.00
2013-2-21,42.0,35.6,31.0,33.0,29.8,27.0,89,80,61,30.01,29.92,5,1,0,0.00
2013-2-22,39.0,34.8,32.0,36.0,31.3,25.0,92,87,69,30.01,29.68,6,1,0,0.00
2013-2-23,43.0,35.4,30.0,30.0,27.3,23.0,89,73,55,30.25,29.82,8,3,0,0.00
2013-2-24,43.0,36.1,31.0,31.0,27.6,24.0,84,71,60,30.27,29.96,4,1,0,0.00
2013-2-25,45.0,35.3,31.0,35.0,29.8,24.0,90,80,57,30.18,29.87,7,2,0,0.00
2013-2-26,47.0,36.8,31.0,31.0,26.8,23.0,83,68,45,30.24,30.13,4,1,0,0.00
2013-2-27,51.0,39.2,30.0,37.0,32.3,27.0,90,77,55,30.20,30.13,3,1,0,0.00
2013-2-28,51.0,41.0,35.0,46.0,37.9,32.0,93,89,83,30.33,30.13,1,0,0,0.00
2013-3-1,52.0,41.9,32.0,47.0,39.0,29.0,93,89,80,30.35,30.24,2,0,0,0.00
2013-3-2,55.0,40.6,31.0,44.0,35.2,27.0,92,82,61,30.24,29.99,6,1,0,0.00
2013-3-3,48.0,37.2,26.0,28.0,23.3,21.0,81,58,37,30.14,30.01,9,3,0,0.00
2013-3-4,52.0,32.7,20.0,26.0,19.1,15.0,88,64,24,30.16,29.90,6,1,0,0.00
2013-3-5,39.0,31.1,24.0,34.0,27.2,20.0,92,85,78,29.91,29.64,2,0,0,0.00
2013-3-6,44.0,35.0,33.0,37.0,31.6,30.0,91,87,76,29.81,29.48,4,0,0,0.00
2013-3-7,56.0,38.0,28.0,35.0,30.0,24.0,91,76,36,29.97,29.81,4,1,0,0.00
2013-3-8,63.0,36.7,23.0,33.0,26.1,20.0,90,71,26,30.09,29.93,5,0,0,0.00
2013-3-9,58.0,39.0,22.0,33.0,24.2,18.0,90,62,21,30.36,30.09,5,1,0,0.00
2013-3-10,50.0,41.4,31.0,37.0,31.4,25.0,80,68,45,30.36,30.25,8,2,0,0.00
2013-3-11,56.0,44.3,35.0,41.0,36.4,31.0,86,75,49,30.29,30.14,3,0,0,0.00
2013-3-12,57.0,45.5,36.0,43.0,38.2,33.0,92,77,48,30.14,30.05,6,1,0,0.00
2013-3-13,64.0,48.9,36.0,45.0,39.0,33.0,90,71,43,30.14,30.03,4,1,0,0.00
2013-3-14,64.0,46.3,37.0,46.0,35.9,27.0,90,72,33,30.09,29.98,7,1,0,0.00
2013-3-15,56.0,45.4,38.0,45.0,38.8,35.0,93,79,53,30.14,30.05,5,1,0,0.00
2013-3-16,49.0,40.3,33.0,41.0,35.9,28.0,92,84,66,30.06,29.81,6,1,0,0.00
2013-3-17,46.0,35.3,31.0,31.0,26.9,24.0,89,72,50,30.08,29.88,8,3,0,0.00
2013-3-18,51.0,38.2,27.0,31.0,27.6,23.0,86,66,44,30.10,30.04,7,3,0,0.00
2013-3-19,48.0,34.3,26.0,35.0,27.0,22.0,89,77,39,30.11,29.70,5,1,0,0.00
2013-3-20,47.0,35.9,31.0,40.0,32.0,27.0,91,86,69,29.93,29.46,7,2,0,0.00
2013-3-21,45.0,35.0,30.0,32.0,27.1,23.0,90,74,46,30.08,29.93,7,3,0,0.00
2013-3-22,44.0,32.9,25.0,28.0,22.9,18.0,86,68,39,30.23,30.06,8,3,0,0.00
2013-3-23,55.0,33.5,25.0,29.0,23.3,18.0,86,69,27,30.25,30.14,3,0,0,0.00
2013-3-24,48.0,34.6,24.0,27.0,23.2,20.0,87,67,36,30.20,30.06,5,1,0,0.00
2013-3-25,63.0,41.0,26.0,36.0,27.6,23.0,87,64,29,30.08,29.86,5,1,0,0.00
2013-3-26,55.0,44.3,32.0,39.0,33.3,29.0,88,67,40,29.92,29.86,3,0,0,0.00
2013-3-27,62.0,46.6,34.0,42.0,36.9,31.0,88,71,43,29.92,29.83,3,0,0,0.00
2013-3-28,65.0,45.4,34.0,45.0,38.5,31.0,93,79,41,30.06,29.92,3,0,0,0.00
2013-3-29,70.0,48.5,36.0,44.0,38.2,33.0,90,71,36,30.14,30.06,4,0,0,0.00
2013-3-30,78.0,48.3,30.0,45.0,35.8,-99.9,93,70,28,30.18,30.01,5,1,0,0.00
2013-3-31,81.0,50.8,30.0,46.0,36.5,27.0,93,65,23,30.05,29.85,5,1,0,0.00
2013-4-1,67.0,49.8,35.0,46.0,40.0,32.0,92,71,46,30.03,29.88,9,2,0,0.00
2013-4-2,61.0,52.5,42.0,43.0,41.4,37.0,84,67,49,30.07,30.03,8,3,0,0.00
2013-4-3,69.0,50.3,31.0,44.0,37.8,28.0,92,67,31,30.08,29.88,4,1,0,0.00
2013-4-4,53.0,48.3,44.0,50.0,44.7,39.0,91,87,77,29.91,29.65,2,0,0,0.00
2013-4-5,54.0,47.5,44.0,48.0,43.7,41.0,91,87,72,29.87,29.76,3,1,0,0.00
2013-4-6,51.0,43.9,39.0,42.0,38.7,35.0,92,82,58,29.88,29.71,4,1,0,0.00
2013-4-7,49.0,38.5,33.0,41.0,34.1,30.0,92,85,60,29.76,29.48,4,1,0,0.00
2013-4-8,53.0,41.8,33.0,38.0,33.0,29.0,89,72,54,30.15,29.75,8,3,0,0.00
2013-4-9,62.0,42.7,28.0,42.0,32.3,25.0,92,69,43,30.25,30.15,4,1,0,0.00
2013-4-10,55.0,46.9,40.0,47.0,38.6,31.0,90,73,56,30.17,29.92,8,3,0,0.00
2013-4-11,55.0,44.0,33.0,36.0,31.2,26.0,80,61,44,30.16,30.04,8,4,0,0.00
2013-4-12,54.0,37.9,27.0,40.0,30.8,23.0,90,77,37,30.06,29.67,6,1,0,0.00
2013-4-13,44.0,37.4,31.0,36.0,30.4,24.0,90,76,55,29.89,29.67,6,3,0,0.00
2013-4-14,51.0,37.9,29.0,34.0,28.5,25.0,91,71,40,29.89,29.78,8,2,0,0.00
2013-4-15,49.0,37.6,27.0,36.0,30.1,23.0,89,75,52,30.04,29.79,6,1,0,0.00
2013-4-16,48.0,36.9,28.0,36.0,30.0,24.0,90,77,48,30.31,30.04,4,1,0,0.00
2013-4-17,58.0,40.6,25.0,35.0,28.3,22.0,90,66,27,30.36,30.29,8,2,0,0.00
2013-4-18,55.0,46.3,38.0,39.0,35.5,31.0,80,66,49,30.33,30.17,7,3,0,0.00
2013-4-19,56.0,47.7,42.0,46.0,41.4,38.0,92,79,59,30.20,30.00,6,1,0,0.00
2013-4-20,55.0,46.7,41.0,41.0,37.7,35.0,88,72,50,30.18,30.09,6,2,0,0.00
2013-4-21,56.0,46.1,37.0,39.0,34.9,31.0,81,66,46,30.19,30.06,7,4,0,0.00
2013-4-22,67.0,44.4,27.0,32.0,25.2,17.0,91,56,17,30.38,30.18,7,2,0,0.00
2013-4-23,66.0,44.2,25.0,34.0,26.9,19.0,87,58,18,30.35,30.08,6,2,0,0.00
2013-4-24,77.0,49.2,26.0,39.0,29.0,23.0,88,55,17,30.25,29.94,4,1,0,0.00
2013-4-25,76.0,58.2,36.0,41.0,36.0,30.0,80,47,25,30.06,29.89,6,2,0,0.00
2013-4-26,79.0,59.6,39.0,44.0,36.3,28.0,85,49,16,30.16,30.04,8,2,0,0.00
2013-4-27,69.0,53.2,36.0,40.0,33.9,25.0,88,54,19,30.16,30.06,8,4,0,0.00
2013-4-28,61.0,51.6,46.0,43.0,38.0,33.0,86,62,35,30.12,29.93,7,3,0,0.00
2013-4-29,52.0,45.0,38.0,42.0,33.3,22.0,90,65,41,30.01,29.88,8,4,0,0.00
2013-4-30,54.0,42.2,33.0,26.0,23.3,20.0,71,49,29,30.31,29.99,8,4,0,0.00
2013-5-1,72.0,44.7,24.0,35.0,25.9,20.0,87,55,19,30.48,30.31,4,1,0,0.00
2013-5-2,82.0,52.7,28.0,44.0,31.3,25.0,87,53,13,30.49,30.19,4,1,0,0.00
2013-5-3,84.0,57.6,35.0,44.0,37.7,32.0,88,55,19,30.24,30.09,6,2,0,0.00
2013-5-4,80.0,59.3,36.0,41.0,34.4,29.0,90,48,17,30.14,29.93,7,3,0,0.00
2013-5-5,83.0,63.5,36.0,41.0,34.4,30.0,87,41,17,29.95,29.74,8,3,0,0.00
2013-5-6,92.0,66.5,38.0,46.0,39.0,34.0,87,45,16,29.81,29.67,6,2,0,0.00
2013-5-7,86.0,71.2,54.0,51.0,46.6,41.0,69,44,25,29.87,29.75,7,2,0,0.00
2013-5-8,91.0,66.3,51.0,57.0,48.5,45.0,80,56,22,30.01,29.87,5,1,0,0.00
2013-5-9,93.0,66.1,45.0,55.0,47.1,38.0,89,57,16,30.07,29.97,6,1,0,0.00
2013-5-10,94.0,66.9,45.0,54.0,44.7,-99.9,88,55,17,30.11,30.02,5,1,0,0.00
2013-5-11,89.0,70.7,55.0,55.0,48.3,-99.9,81,51,22,30.14,29.94,5,1,0,0.00
2013-5-12,73.0,61.3,52.0,56.0,49.5,39.0,83,67,35,30.05,29.96,6,2,0,0.00
2013-5-13,64.0,54.8,41.0,51.0,45.2,34.0,87,71,49,30.12,29.96,6,2,0,0.00
2013-5-14,69.0,51.5,36.0,39.0,32.8,23.0,88,55,21,30.13,30.00,8,2,0,0.00
2013-5-15,58.0,48.5,37.0,44.0,39.4,33.0,86,72,54,30.03,29.92,6,1,0,0.00
2013-5-16,73.0,49.7,34.0,48.0,25.0,-99.9,92,66,33,29.96,29.78,5,2,0,0.00
2013-5-17,62.0,50.5,43.0,45.0,39.2,-99.9,91,74,46,29.97,29.87,7,2,0,0.00
2013-5-18,60.0,49.9,40.0,44.0,40.0,36.0,87,70,51,30.16,29.96,7,2,0,0.00
2013-5-19,65.0,54.8,45.0,42.0,39.9,37.0,79,59,39,30.24,30.14,8,4,0,0.00
2013-5-20,84.0,55.8,34.0,46.0,38.5,31.0,91,59,21,30.24,29.82,4,1,0,0.00
2013-5-21,58.0,47.7,40.0,45.0,38.4,35.0,87,71,42,29.83,29.67,7,2,0,0.00
2013-5-22,45.0,41.0,37.0,39.0,36.0,33.0,89,82,72,29.88,29.76,4,1,0,0.00
2013-5-23,51.0,42.7,35.0,42.0,37.3,32.0,90,81,66,29.96,29.87,3,0,0,0.00
2013-5-24,60.0,47.4,39.0,45.0,39.5,34.0,90,76,49,29.99,29.89,5,2,0,0.00
2013-5-25,65.0,49.3,35.0,43.0,38.5,32.0,91,69,43,29.98,29.88,6,1,0,0.00
2013-5-26,68.0,53.3,44.0,49.0,43.8,39.0,91,72,44,29.94,29.87,5,2,0,0.00
2013-5-27,56.0,48.9,40.0,50.0,44.9,36.0,91,86,78,29.93,29.72,2,0,0,0.00
2013-5-28,62.0,51.4,44.0,47.0,43.6,40.0,92,76,52,29.85,29.71,5,1,0,0.00
2013-5-29,58.0,49.3,44.0,51.0,43.2,39.0,91,80,57,29.93,29.60,5,1,0,0.00
2013-5-30,62.0,49.0,39.0,44.0,39.4,35.0,90,71,45,30.14,29.93,6,2,0,0.00
2013-5-31,79.0,54.3,36.0,47.0,39.5,33.0,90,62,27,30.23,30.13,5,1,0,0.00
2013-6-1,75.0,56.0,37.0,47.0,41.8,34.0,91,64,28,30.17,29.96,7,2,0,0.00
2013-6-2,71.0,58.5,44.0,45.0,40.6,38.0,87,55,31,29.96,29.91,8,4,0,0.00
2013-6-3,81.0,60.2,38.0,50.0,41.5,34.0,89,55,24,29.99,29.91,7,2,0,0.00
2013-6-4,92.0,63.0,40.0,52.0,43.3,37.0,89,56,18,30.06,29.96,5,1,0,0.00
2013-6-5,89.0,67.1,44.0,52.0,46.3,40.0,88,54,20,30.01,29.90,4,1,0,0.00
2013-6-6,91.0,69.8,50.0,56.0,49.9,42.0,87,54,19,29.96,29.87,5,2,0,0.00
2013-6-7,77.0,66.8,53.0,52.0,44.8,35.0,72,46,27,30.03,29.92,7,3,0,0.00
2013-6-8,84.0,66.5,49.0,46.0,41.2,33.0,70,43,20,30.02,29.94,7,3,0,0.00
2013-6-9,77.0,63.9,53.0,44.0,40.2,31.0,68,45,21,29.95,29.84,7,3,0,0.00
2013-6-10,79.0,58.1,39.0,50.0,40.0,35.0,85,55,24,29.88,29.73,5,2,0,0.00
2013-6-11,61.0,53.0,44.0,41.0,38.2,33.0,77,58,44,30.04,29.81,8,4,0,0.00
2013-6-12,68.0,52.6,38.0,42.0,37.7,34.0,85,60,35,30.05,30.00,7,3,0,0.00
2013-6-13,63.0,52.7,44.0,47.0,41.4,37.0,83,66,43,30.14,30.03,7,2,0,0.00
2013-6-14,78.0,58.3,46.0,47.0,42.2,39.0,84,58,28,30.15,29.95,6,2,0,0.00
2013-6-15,90.0,60.8,37.0,52.0,42.2,34.0,90,58,18,29.96,29.82,4,1,0,0.00
2013-6-16,87.0,65.1,48.0,55.0,47.6,40.0,87,57,19,30.01,29.90,6,1,0,0.00
2013-6-17,79.0,65.9,54.0,51.0,45.3,41.0,81,51,27,30.02,29.84,5,2,0,0.00
2013-6-18,74.0,60.8,51.0,46.0,40.9,34.0,69,51,25,29.93,29.80,6,2,0,0.00
2013-6-19,65.0,55.4,46.0,45.0,41.0,39.0,83,60,39,29.95,29.81,7,3,0,0.00
2013-6-20,60.0,52.1,46.0,44.0,41.6,39.0,79,68,50,30.00,29.91,7,3,0,0.00
2013-6-21,71.0,68.8,67.0,47.0,45.2,44.0,45,43,40,30.04,30.01,5,4,0,0.00
2013-6-22,82.0,67.9,42.0,52.0,45.4,38.0,87,48,25,30.03,29.83,5,2,0,0.00
2013-6-23,69.0,61.4,55.0,58.0,53.8,50.0,89,77,54,29.83,29.61,2,0,0,0.00
2013-6-24,68.0,58.0,53.0,55.0,49.4,45.0,91,75,51,29.68,29.59,5,1,0,0.00
2013-6-25,65.0,56.2,50.0,55.0,51.4,47.0,91,84,64,29.85,29.66,2,0,0,0.00
2013-6-26,73.0,59.5,50.0,56.0,51.6,47.0,92,77,47,30.04,29.83,2,0,0,0.00
2013-6-27,83.0,64.3,54.0,58.0,53.9,50.0,90,72,38,30.16,30.02,4,1,0,0.00
2013-6-28,91.0,67.8,51.0,65.0,55.1,48.0,90,69,32,30.16,30.00,4,1,0,0.00
2013-6-29,94.0,74.6,60.0,65.0,58.6,53.0,88,62,27,30.05,29.94,4,1,0,0.00
2013-6-30,100.0,73.6,55.0,65.0,57.9,52.0,90,64,23,30.00,29.85,5,1,0,0.00
2013-7-1,102.0,76.0,59.0,66.0,59.5,54.0,87,62,22,29.96,29.87,5,1,0,0.00
2013-7-2,99.0,76.7,63.0,66.0,58.7,47.0,89,60,18,30.00,29.93,5,1,0,0.00
2013-7-3,91.0,75.7,61.0,57.0,49.3,42.0,74,44,20,30.02,29.91,7,2,0,0.00
2013-7-4,81.0,69.1,55.0,50.0,45.4,38.0,66,44,30,29.96,29.87,7,3,0,0.00
2013-7-5,78.0,64.8,55.0,48.0,44.8,43.0,69,50,32,29.89,29.82,8,4,0,0.00
2013-7-6,86.0,55.9,43.0,53.0,44.4,39.0,87,70,25,29.87,29.79,4,1,0,0.00
2013-7-7,89.0,67.6,50.0,56.0,51.3,44.0,88,61,24,29.85,29.75,4,1,0,0.00
2013-7-8,89.0,64.3,50.0,55.0,49.4,44.0,86,62,22,30.01,29.83,6,1,0,0.00
2013-7-9,96.0,67.2,48.0,56.0,50.5,39.0,87,61,14,30.04,29.90,4,0,0,0.00
2013-7-10,88.0,70.2,51.0,55.0,46.0,-99.9,86,49,21,29.98,29.81,7,2,0,0.00
2013-7-11,82.0,65.5,50.0,45.0,39.8,29.0,71,43,18,29.91,29.83,7,2,0,0.00
2013-7-12,76.0,61.7,46.0,45.0,41.0,37.0,75,49,26,29.99,29.86,7,2,0,0.00
2013-7-13,85.0,60.8,40.0,47.0,39.5,31.0,84,52,16,30.09,29.97,4,1,0,0.00
2013-7-14,93.0,73.2,44.0,46.0,40.5,34.0,87,38,13,30.06,29.87,5,2,0,0.00
2013-7-15,94.0,65.4,44.0,50.0,43.2,38.0,82,50,18,29.95,29.81,5,1,0,0.00
2013-7-16,88.0,67.7,48.0,61.0,48.4,40.0,75,54,21,29.89,29.79,6,1,0,0.00
2013-7-17,88.0,69.3,56.0,57.0,48.9,31.0,89,55,15,30.07,29.86,5,2,0,0.00
2013-7-18,95.0,63.4,43.0,52.0,45.7,38.0,89,59,15,30.10,29.96,4,1,0,0.00
2013-7-19,97.0,69.4,46.0,55.0,46.8,40.0,80,51,16,30.04,29.88,5,1,0,0.00
2013-7-20,96.0,66.8,49.0,56.0,45.9,-99.9,84,54,13,29.94,29.81,5,1,0,0.00
2013-7-21,93.0,68.7,47.0,55.0,49.5,42.0,84,55,24,29.84,29.75,6,2,0,0.00
2013-7-22,93.0,74.5,62.0,55.0,47.7,40.0,61,41,20,29.90,29.80,6,2,0,0.00
2013-7-23,99.0,67.1,46.0,57.0,48.3,41.0,87,57,15,29.97,29.86,3,1,0,0.00
2013-7-24,98.0,70.0,48.0,53.0,49.0,43.0,85,53,16,29.96,29.88,7,1,0,0.00
2013-7-25,96.0,70.3,46.0,52.0,45.7,36.0,86,49,13,29.98,29.92,6,1,0,0.00
2013-7-26,96.0,75.8,46.0,49.0,43.8,34.0,81,37,12,30.04,29.96,7,2,0,0.00
2013-7-27,87.0,68.1,54.0,49.0,44.2,38.0,61,44,20,30.02,29.87,7,2,0,0.00
2013-7-28,81.0,64.4,52.0,50.0,46.5,41.0,74,55,27,29.89,29.80,7,2,0,0.00
2013-7-29,86.0,60.7,43.0,52.0,45.8,39.0,87,63,20,29.92,29.83,5,1,0,0.00
2013-7-30,90.0,69.9,53.0,56.0,48.8,43.0,82,52,22,30.03,29.90,4,2,0,0.00
2013-7-31,89.0,70.8,56.0,59.0,53.3,45.0,77,57,22,30.03,29.91,3,1,0,0.00
2013-8-1,73.0,64.0,58.0,56.0,51.3,48.0,81,64,47,29.99,29.91,9,3,0,0.00
2013-8-2,75.0,62.7,56.0,52.0,49.0,47.0,76,62,44,30.03,29.98,7,2,0,0.00
2013-8-3,88.0,66.4,50.0,56.0,50.3,45.0,87,60,26,30.05,29.93,5,1,0,0.00
2013-8-4,94.0,69.5,49.0,57.0,49.5,41.0,89,57,16,30.01,29.85,4,1,0,0.00
2013-8-5,94.0,71.6,53.0,59.0,52.9,48.0,87,57,22,29.96,29.85,5,1,0,0.00
2013-8-6,95.0,69.4,49.0,54.0,49.1,43.0,87,55,17,29.94,29.83,6,1,0,0.00
2013-8-7,94.0,69.1,46.0,54.0,47.1,37.0,84,52,14,29.93,29.83,6,2,0,0.00
2013-8-8,91.0,69.8,54.0,56.0,52.4,47.0,79,57,26,29.93,29.82,4,1,0,0.00
2013-8-9,97.0,66.9,56.0,59.0,54.5,50.0,91,68,21,29.97,29.73,5,1,0,0.00
2013-8-10,82.0,67.1,54.0,64.0,57.4,51.0,93,73,45,29.96,29.84,5,1,0,0.00
2013-8-11,84.0,68.8,57.0,59.0,53.3,48.0,82,61,29,29.97,29.89,5,2,0,0.00
2013-8-12,87.0,63.9,47.0,54.0,48.7,44.0,90,64,24,29.99,29.92,5,1,0,0.00
2013-8-13,94.0,66.4,47.0,52.0,44.5,-99.9,89,57,13,30.03,29.88,4,1,0,0.00
2013-8-14,89.0,66.6,50.0,56.0,45.1,-99.9,84,53,22,29.94,29.87,5,1,0,0.00
2013-8-15,85.0,60.6,61.0,59.0,28.4,-99.9,69,48,31,29.92,29.87,6,2,0,0.00
2013-8-16,86.0,68.1,59.0,60.0,50.0,-99.9,87,60,35,29.98,29.90,5,1,0,0.00
2013-8-19,84.0,63.8,52.0,51.0,36.7,-99.9,85,52,31,30.02,29.95,7,2,0,0.00
2013-8-20,90.0,64.4,44.0,51.0,43.0,-99.9,88,54,20,30.04,29.91,5,1,0,0.00
2013-8-21,96.0,66.9,45.0,52.0,44.8,40.0,85,53,17,30.01,29.88,4,1,0,0.00
2013-8-22,78.0,67.1,48.0,59.0,52.1,41.0,80,60,39,29.93,29.81,2,0,0,0.00
2013-8-23,79.0,66.1,58.0,58.0,52.6,44.0,90,65,37,29.87,29.79,7,2,0,0.00
2013-8-24,79.0,62.4,50.0,52.0,46.2,-99.9,87,60,33,29.85,29.77,6,2,0,0.00
2013-8-25,74.0,59.4,51.0,57.0,51.1,45.0,90,75,47,29.87,29.80,3,0,0,0.00
2013-8-29,78.0,67.1,61.0,61.0,55.3,51.0,87,67,47,30.04,29.81,5,1,0,0.00
2013-8-30,80.0,64.9,53.0,55.0,51.9,47.0,86,65,35,30.10,30.00,6,1,0,0.00
2013-8-31,93.0,64.1,44.0,55.0,46.3,-99.9,90,61,23,30.04,29.82,4,1,0,0.00
2013-9-1,92.0,66.6,48.0,55.0,48.9,44.0,88,59,23,29.85,29.72,4,1,0,0.00
2013-9-2,86.0,70.1,59.0,54.0,51.1,47.0,73,53,27,29.87,29.78,7,2,0,0.00
2013-9-3,84.0,68.9,58.0,58.0,52.7,48.0,87,60,32,29.96,29.84,5,1,0,0.00
2013-9-4,83.0,65.9,53.0,57.0,51.5,47.0,83,63,30,29.95,29.88,4,1,0,0.00
2013-9-5,77.0,65.3,55.0,59.0,55.6,52.0,90,72,52,29.96,29.80,6,1,0,0.00
2013-9-6,68.0,58.5,54.0,57.0,53.0,51.0,91,83,61,30.08,29.93,4,1,0,0.00
2013-9-7,82.0,59.8,44.0,59.0,47.8,-99.9,93,71,35,30.07,29.92,4,1,0,0.00
2013-9-8,87.0,65.5,51.0,56.0,53.0,48.0,90,68,32,30.06,29.93,5,1,0,0.00
2013-9-9,90.0,66.7,47.0,57.0,51.1,44.0,91,63,27,29.97,29.85,4,1,0,0.00
2013-9-10,94.0,68.8,50.0,56.0,50.9,47.0,91,60,23,29.96,29.84,5,1,0,0.00
2013-9-11,96.0,73.0,50.0,57.0,51.6,47.0,89,55,22,29.98,29.89,5,1,0,0.00
2013-9-12,97.0,71.4,50.0,57.0,52.2,47.0,88,58,22,29.96,29.82,4,1,0,0.00
2013-9-13,93.0,69.8,53.0,61.0,55.5,50.0,90,65,27,29.87,29.72,4,1,0,0.00
2013-9-14,97.0,69.9,51.0,59.0,50.4,-99.9,90,59,23,29.80,29.68,6,1,0,0.00
2013-9-15,87.0,65.7,58.0,62.0,53.9,51.0,80,67,32,29.77,29.64,6,1,0,0.00
2013-9-16,67.0,59.7,51.0,54.0,49.7,46.0,83,70,55,29.90,29.77,5,2,0,0.00
2013-9-17,66.0,55.3,44.0,48.0,43.5,41.0,90,67,42,29.86,29.73,6,2,0,0.00
2013-9-18,54.0,50.5,42.0,43.0,41.1,36.0,82,70,64,30.00,29.85,4,1,0,0.00
2013-9-19,81.0,53.5,32.0,43.0,36.1,29.0,90,60,20,30.01,29.80,5,1,0,0.00
2013-9-20,79.0,56.5,35.0,51.0,41.2,32.0,90,62,23,29.81,29.58,5,1,0,0.00
2013-9-21,67.0,54.8,46.0,53.0,43.9,-99.9,93,72,44,29.70,29.61,5,1,0,0.00
2013-9-22,53.0,49.5,44.0,49.0,45.8,42.0,93,87,75,29.75,29.62,1,0,0,0.00
2013-9-23,59.0,50.4,45.0,51.0,46.7,42.0,92,87,68,29.91,29.75,2,0,0,0.00
2013-9-24,58.0,49.5,44.0,46.0,41.6,38.0,91,76,49,29.89,29.75,4,1,0,0.00
2013-10-1,47.0,41.4,36.0,41.0,37.5,33.0,91,86,76,30.10,30.04,3,0,0,0.00
2013-10-2,55.0,43.3,36.0,43.0,37.8,33.0,92,82,58,30.10,29.94,4,0,0,0.00
2013-10-3,62.0,43.3,30.0,43.0,35.7,27.0,93,77,46,30.35,30.04,3,0,0,0.00
2013-10-4,67.0,44.5,29.0,44.0,34.7,26.0,93,73,35,30.43,30.33,4,0,0,0.00
2013-10-5,70.0,46.5,30.0,46.0,34.9,27.0,93,70,27,30.35,30.16,3,0,0,0.00
2013-10-6,74.0,54.8,31.0,45.0,35.6,28.0,93,55,23,30.19,29.91,3,1,0,0.00
2013-10-7,56.0,48.4,42.0,46.0,41.4,36.0,90,78,58,29.97,29.85,5,1,0,0.00
2013-10-8,52.0,45.2,33.0,44.0,38.2,29.0,88,77,58,29.99,29.84,6,1,0,0.00
2013-10-9,60.0,41.9,29.0,43.0,34.2,26.0,92,77,45,30.02,29.87,5,1,0,0.00
2013-10-10,61.0,46.9,36.0,42.0,36.6,30.0,90,70,42,29.96,29.80,6,2,0,0.00
2013-10-11,56.0,41.5,31.0,41.0,34.9,28.0,93,79,53,30.04,29.96,3,0,0,0.00
2013-10-12,52.0,42.9,35.0,44.0,36.7,-99.9,90,83,64,30.07,29.94,3,0,0,0.00
2013-10-13,66.0,43.1,30.0,44.0,35.1,27.0,93,77,38,30.25,30.08,3,0,0,0.00
2013-10-14,66.0,42.4,29.0,42.0,33.3,26.0,93,74,35,30.34,30.24,3,0,0,0.00
2013-10-15,62.0,40.8,26.0,41.0,31.1,22.0,92,73,32,30.35,30.10,4,0,0,0.00
2013-10-16,68.0,42.8,29.0,43.0,33.4,26.0,92,73,34,30.13,30.04,3,0,0,0.00
2013-10-17,69.0,43.9,29.0,44.0,34.3,26.0,93,73,35,30.20,30.12,3,0,0,0.00
2013-10-18,69.0,43.4,28.0,43.0,34.0,24.0,93,73,33,30.23,30.11,4,0,0,0.00
2013-10-19,73.0,45.5,28.0,46.0,33.8,-99.9,91,71,35,30.12,29.98,2,0,0,0.00
2013-10-20,78.0,47.5,31.0,49.0,37.7,28.0,94,75,28,30.12,30.04,2,0,0,0.00
2013-10-21,78.0,48.4,32.0,49.0,38.7,29.0,93,75,28,30.14,30.04,4,0,0,0.00
2013-10-22,76.0,50.3,32.0,49.0,39.8,29.0,93,72,33,30.13,30.00,3,0,0,0.00
2013-10-23,75.0,49.4,31.0,50.0,39.8,28.0,94,74,38,30.07,29.97,3,0,0,0.00
2013-10-24,72.0,49.6,31.0,49.0,40.3,28.0,93,74,41,30.07,29.97,3,0,0,0.00
2013-10-25,72.0,50.5,31.0,50.0,41.3,28.0,94,74,42,30.19,30.11,2,0,0,0.00
2013-10-26,69.0,43.8,30.0,49.0,35.9,-99.9,93,78,47,30.22,30.03,4,0,0,0.00
2013-10-27,52.0,43.1,33.0,43.0,37.8,30.0,93,82,59,30.05,29.71,6,1,0,0.00
2013-10-28,52.0,44.8,30.0,38.0,25.5,-99.9,79,49,34,29.85,29.74,10,5,0,0.00
2013-10-29,54.0,34.9,22.0,31.0,23.8,18.0,87,69,32,29.97,29.85,4,0,0,0.00
2013-10-30,56.0,41.6,24.0,33.0,27.4,21.0,90,61,36,30.07,29.93,6,2,0,0.00
2013-11-12,58.0,43.8,38.0,48.0,40.2,35.0,92,87,70,30.32,30.14,1,0,0,0.00
2013-11-13,55.0,43.6,31.0,43.0,37.1,28.0,93,79,52,30.35,30.21,4,1,0,0.00
2013-11-14,50.0,37.7,30.0,37.0,31.4,27.0,91,79,56,30.19,29.92,7,1,0,0.00
2013-11-15,43.0,39.4,35.0,36.0,33.0,29.0,90,78,66,29.94,29.34,6,2,0,0.00
2013-11-16,43.0,38.1,35.0,36.0,30.8,-99.9,91,78,62,29.66,29.29,6,3,0,0.00
2013-11-17,46.0,40.6,36.0,41.0,37.4,33.0,92,88,80,29.87,29.67,3,0,0,0.00
2013-11-18,50.0,44.4,40.0,45.0,41.5,37.0,92,89,80,29.87,29.60,2,0,0,0.00
2013-11-23,39.0,23.5,12.0,19.0,12.2,-99.9,86,68,37,30.52,30.25,3,0,0,0.00
2013-11-24,43.0,25.3,15.0,22.0,16.2,11.0,86,71,37,30.28,30.15,2,0,0,0.00
2013-11-25,43.0,27.1,16.0,24.0,18.6,12.0,87,72,40,30.34,30.26,3,0,0,0.00
2013-11-26,41.0,28.1,18.0,26.0,20.6,14.0,88,75,49,30.30,30.10,2,0,0,0.00
2013-11-27,41.0,29.4,22.0,27.0,22.8,18.0,88,77,54,30.10,30.01,3,0,0,0.00
2013-11-28,45.0,27.5,19.0,28.0,21.2,15.0,88,79,52,30.12,30.04,2,0,0,0.00
2013-11-29,40.0,27.3,20.0,31.0,22.6,16.0,87,83,71,30.16,30.10,1,0,0,0.00